GIA6101 WIMM-OEMA

Flight info

Callsign GIA6101
Flight time N/A
Altitude 36000
Route INANG DCT MABIX P570 TVM UL425 ODOLI/N0479F380 UL425 ASPUX N315 SITOL DCT PUSON L883 KITUB Y511 ELONU
Aircraft A339/H-SADE1E2E3GHIJ3J5M1P2RWXY/LB2D1

Departure

Time 2026-04-21 23:54
Airport Kualanamu International Airport (WIMM)

Arrival

Time N/A
Airport Prince Mohammad Bin Abdulaziz Airport (OEMA)
Time Latitude Longitude Altitude Speed Heading
2026-04-21 23:26 3.63718 98.88322 38 ft 0 kts 315°
2026-04-21 23:43 3.63713 98.88326 38 ft 2 kts 315°
2026-04-21 23:43 3.63702 98.88337 38 ft 2 kts 322°
2026-04-21 23:43 3.63688 98.88344 37 ft 2 kts 351°
2026-04-21 23:44 3.63673 98.88344 37 ft 2 kts 14°
2026-04-21 23:44 3.63660 98.88339 37 ft 2 kts 36°
2026-04-21 23:44 3.63654 98.88333 37 ft 1 kts 46°
2026-04-21 23:44 3.63652 98.88332 37 ft 0 kts 46°
2026-04-21 23:48 3.63660 98.88339 37 ft 3 kts 45°
2026-04-21 23:48 3.63690 98.88370 37 ft 7 kts 44°
2026-04-21 23:48 3.63737 98.88416 38 ft 10 kts 44°
2026-04-21 23:48 3.63799 98.88460 39 ft 10 kts
2026-04-21 23:49 3.63839 98.88438 40 ft 3 kts 308°
2026-04-21 23:49 3.63863 98.88415 41 ft 7 kts 317°
2026-04-21 23:49 3.63919 98.88361 42 ft 15 kts 314°
2026-04-21 23:49 3.64009 98.88270 44 ft 20 kts 315°
2026-04-21 23:50 3.64101 98.88178 45 ft 18 kts 315°
2026-04-21 23:50 3.64190 98.88090 45 ft 17 kts 315°
2026-04-21 23:50 3.64281 98.88003 43 ft 16 kts 324°
2026-04-21 23:50 3.64357 98.88016 44 ft 11 kts 44°
2026-04-21 23:51 3.64412 98.88068 45 ft 10 kts 44°
2026-04-21 23:51 3.64469 98.88125 46 ft 12 kts 44°
2026-04-21 23:51 3.64534 98.88189 47 ft 14 kts 44°
2026-04-21 23:51 3.64614 98.88267 49 ft 17 kts 44°
2026-04-21 23:52 3.64708 98.88360 49 ft 20 kts 45°
2026-04-21 23:52 3.64811 98.88399 48 ft 16 kts 327°
2026-04-21 23:52 3.64891 98.88325 47 ft 15 kts 317°
2026-04-21 23:52 3.64947 98.88236 45 ft 15 kts 271°
2026-04-21 23:53 3.64900 98.88166 45 ft 7 kts 227°
2026-04-21 23:53 3.64862 98.88127 45 ft 8 kts 224°
2026-04-21 23:53 3.64739 98.88006 44 ft 54 kts 225°
2026-04-21 23:53 3.64329 98.87599 32 ft 111 kts 226°
2026-04-21 23:54 3.63660 98.86933 54 ft 157 kts 225°
2026-04-21 23:54 3.62800 98.86086 259 ft 181 kts 224°
2026-04-21 23:54 3.61895 98.85209 759 ft 184 kts 224°
2026-04-21 23:54 3.60941 98.84308 1267 ft 192 kts 223°
2026-04-21 23:55 3.59941 98.83414 1838 ft 195 kts 220°
2026-04-21 23:55 3.58971 98.82426 2152 ft 204 kts 242°
2026-04-21 23:55 3.58681 98.81011 2381 ft 219 kts 279°
2026-04-21 23:55 3.59268 98.79555 2658 ft 234 kts 298°
2026-04-21 23:56 3.60113 98.78117 2942 ft 249 kts 300°
2026-04-21 23:56 3.61017 98.76585 3247 ft 263 kts 299°
2026-04-21 23:56 3.61943 98.74986 3757 ft 268 kts 298°
2026-04-21 23:56 3.62875 98.73353 4380 ft 269 kts 298°
2026-04-21 23:57 3.63791 98.71732 4970 ft 271 kts 298°
2026-04-21 23:57 3.64724 98.70074 5555 ft 273 kts 298°
2026-04-21 23:57 3.65653 98.68422 6128 ft 274 kts 298°
2026-04-21 23:57 3.66586 98.66775 6691 ft 276 kts 300°
2026-04-21 23:58 3.67664 98.65176 7250 ft 278 kts 302°
2026-04-21 23:58 3.68360 98.63416 7759 ft 277 kts 272°
2026-04-21 23:58 3.68107 98.61514 8311 ft 277 kts 254°
2026-04-21 23:58 3.67534 98.59673 8858 ft 279 kts 252°
2026-04-21 23:59 3.66957 98.57820 9381 ft 282 kts 253°
2026-04-21 23:59 3.66411 98.55914 9917 ft 283 kts 255°
2026-04-21 23:59 3.65907 98.54021 10368 ft 288 kts 256°
2026-04-21 23:59 3.65401 98.52015 10605 ft 301 kts 256°
2026-04-22 00:00 3.64896 98.49939 10840 ft 314 kts 257°
2026-04-22 00:00 3.64385 98.47794 11071 ft 327 kts 257°
2026-04-22 00:00 3.63853 98.45533 11300 ft 339 kts 257°
2026-04-22 00:00 3.63304 98.43184 11528 ft 352 kts 257°
2026-04-22 00:01 3.62742 98.40770 11748 ft 364 kts 257°
2026-04-22 00:01 3.62158 98.38255 12075 ft 372 kts 257°
2026-04-22 00:01 3.61577 98.35747 12591 ft 375 kts 257°
2026-04-22 00:01 3.60987 98.33201 13132 ft 377 kts 257°
2026-04-22 00:02 3.60389 98.30616 13648 ft 380 kts 257°
2026-04-22 00:02 3.59790 98.28032 14153 ft 383 kts 257°
2026-04-22 00:02 3.59189 98.25435 14656 ft 386 kts 257°
2026-04-22 00:02 3.58587 98.22836 15149 ft 389 kts 257°
2026-04-22 00:03 3.57970 98.20172 15622 ft 392 kts 257°
2026-04-22 00:03 3.57356 98.17525 16086 ft 396 kts 257°
2026-04-22 00:03 3.56729 98.14816 16579 ft 399 kts 257°
2026-04-22 00:03 3.56107 98.12113 17007 ft 403 kts 257°
2026-04-22 00:04 3.55466 98.09364 17421 ft 407 kts 257°
2026-04-22 00:04 3.54825 98.06600 17874 ft 410 kts 257°
2026-04-22 00:04 3.54174 98.03793 18338 ft 413 kts 257°
2026-04-22 00:04 3.53523 98.00981 18811 ft 415 kts 257°
2026-04-22 00:05 3.52873 97.98177 19272 ft 417 kts 257°
2026-04-22 00:05 3.52221 97.95364 19703 ft 420 kts 257°
2026-04-22 00:05 3.51555 97.92493 20126 ft 422 kts 257°
2026-04-22 00:05 3.50894 97.89642 20533 ft 425 kts 257°
2026-04-22 00:06 3.50220 97.86737 20936 ft 427 kts 257°
2026-04-22 00:06 3.49554 97.83868 21327 ft 430 kts 257°
2026-04-22 00:06 3.48875 97.80942 21706 ft 432 kts 257°
2026-04-22 00:06 3.48193 97.78003 22074 ft 435 kts 257°
2026-04-22 00:07 3.47513 97.75075 22432 ft 437 kts 257°
2026-04-22 00:07 3.46818 97.72078 22789 ft 439 kts 257°
2026-04-22 00:07 3.46132 97.69125 23130 ft 442 kts 257°
2026-04-22 00:07 3.45433 97.66117 23467 ft 444 kts 257°
2026-04-22 00:08 3.44778 97.63100 23794 ft 446 kts 259°
2026-04-22 00:08 3.44270 97.60032 24115 ft 448 kts 262°
2026-04-22 00:08 3.43927 97.56937 24428 ft 450 kts 265°
2026-04-22 00:08 3.43709 97.53793 24738 ft 452 kts 266°
2026-04-22 00:09 3.43511 97.50645 25038 ft 454 kts 266°
2026-04-22 00:09 3.43316 97.47495 25330 ft 456 kts 266°
2026-04-22 00:09 3.43120 97.44331 25616 ft 458 kts 266°
2026-04-22 00:09 3.42923 97.41170 25901 ft 460 kts 266°
2026-04-22 00:10 3.42722 97.37969 26173 ft 462 kts 266°
2026-04-22 00:10 3.42519 97.34757 26437 ft 464 kts 266°
2026-04-22 00:10 3.42315 97.31533 26699 ft 466 kts 266°
2026-04-22 00:10 3.42111 97.28312 26954 ft 468 kts 266°
2026-04-22 00:11 3.41905 97.25062 27203 ft 469 kts 266°
2026-04-22 00:11 3.41697 97.21796 27449 ft 471 kts 266°
2026-04-22 00:11 3.41489 97.18527 27699 ft 473 kts 266°
2026-04-22 00:11 3.41280 97.15231 28009 ft 473 kts 266°
2026-04-22 00:12 3.41073 97.11993 28358 ft 471 kts 266°
2026-04-22 00:12 3.40866 97.08736 28699 ft 470 kts 266°
2026-04-22 00:12 3.40658 97.05471 29020 ft 470 kts 266°
2026-04-22 00:12 3.40451 97.02219 29327 ft 469 kts 266°
2026-04-22 00:13 3.40245 96.98985 29628 ft 469 kts 266°
2026-04-22 00:13 3.40036 96.95715 29927 ft 468 kts 266°
2026-04-22 00:13 3.39829 96.92474 30218 ft 467 kts 266°
2026-04-22 00:13 3.39622 96.89233 30503 ft 467 kts 266°
2026-04-22 00:14 3.39416 96.86014 30781 ft 466 kts 266°
2026-04-22 00:14 3.39210 96.82787 31054 ft 466 kts 266°
2026-04-22 00:14 3.39003 96.79552 31321 ft 465 kts 266°
2026-04-22 00:14 3.38797 96.76327 31583 ft 465 kts 266°
2026-04-22 00:15 3.38592 96.73140 31837 ft 464 kts 266°
2026-04-22 00:15 3.38386 96.69913 32089 ft 464 kts 266°
2026-04-22 00:15 3.38179 96.66691 32335 ft 463 kts 266°
2026-04-22 00:15 3.37975 96.63498 32574 ft 463 kts 266°
2026-04-22 00:16 3.37771 96.60323 32806 ft 462 kts 266°
2026-04-22 00:16 3.37564 96.57087 33037 ft 462 kts 266°
2026-04-22 00:16 3.37358 96.53884 33261 ft 461 kts 266°
2026-04-22 00:16 3.37155 96.50712 33477 ft 461 kts 266°
2026-04-22 00:17 3.36948 96.47500 33692 ft 460 kts 266°
2026-04-22 00:17 3.36748 96.44340 33893 ft 460 kts 266°
2026-04-22 00:17 3.36547 96.41148 34092 ft 460 kts 266°
2026-04-22 00:17 3.36347 96.37969 34277 ft 459 kts 266°
2026-04-22 00:18 3.36145 96.34748 34436 ft 460 kts 266°
2026-04-22 00:18 3.35946 96.31590 34577 ft 461 kts 266°
2026-04-22 00:18 3.35745 96.28392 34719 ft 461 kts 266°
2026-04-22 00:18 3.35542 96.25174 34863 ft 462 kts 266°
2026-04-22 00:19 3.35342 96.21985 35005 ft 462 kts 266°
2026-04-22 00:19 3.35140 96.18794 35142 ft 463 kts 266°
2026-04-22 00:19 3.34937 96.15566 35277 ft 463 kts 266°
2026-04-22 00:19 3.34734 96.12358 35407 ft 464 kts 266°
2026-04-22 00:20 3.34533 96.09164 35533 ft 464 kts 266°
2026-04-22 00:20 3.34327 96.05910 35659 ft 465 kts 266°
2026-04-22 00:20 3.34124 96.02696 35781 ft 465 kts 266°
2026-04-22 00:20 3.33922 95.99500 35901 ft 466 kts 266°
2026-04-22 00:21 3.33716 95.96238 36007 ft 467 kts 266°
2026-04-22 00:21 3.33307 95.89768 36016 ft 467 kts 266°
2026-04-22 00:22 3.32896 95.83293 36017 ft 467 kts 266°
2026-04-22 00:22 3.32488 95.76852 36018 ft 467 kts 266°
2026-04-22 00:23 3.32075 95.70348 36018 ft 467 kts 266°
2026-04-22 00:23 3.31665 95.63908 36018 ft 467 kts 266°
2026-04-22 00:24 3.31252 95.57416 36018 ft 467 kts 266°
2026-04-22 00:24 3.30839 95.50927 36018 ft 467 kts 266°
2026-04-22 00:25 3.30429 95.44499 36018 ft 467 kts 266°
2026-04-22 00:25 3.30014 95.38001 36018 ft 467 kts 266°
2026-04-22 00:26 3.29600 95.31526 36018 ft 467 kts 266°
2026-04-22 00:26 3.29187 95.25072 36018 ft 467 kts 266°
2026-04-22 00:27 3.28771 95.18580 36018 ft 467 kts 266°
2026-04-22 00:27 3.28358 95.12133 36018 ft 467 kts 266°
2026-04-22 00:28 3.27942 95.05637 36018 ft 467 kts 266°
2026-04-22 00:28 3.27527 94.99165 36018 ft 467 kts 266°
2026-04-22 00:29 3.27149 94.92674 36018 ft 467 kts 268°
2026-04-22 00:29 3.27283 94.86239 36018 ft 467 kts 274°
2026-04-22 00:30 3.28097 94.79808 36018 ft 467 kts 280°
2026-04-22 00:30 3.29557 94.73483 36018 ft 467 kts 284°
2026-04-22 00:31 3.31214 94.67191 36018 ft 467 kts 285°
2026-04-22 00:31 3.32864 94.60925 36018 ft 467 kts 284°
2026-04-22 00:32 3.34516 94.54630 36018 ft 467 kts 284°
2026-04-22 00:32 3.36158 94.48363 36018 ft 467 kts 284°
2026-04-22 00:33 3.37796 94.42107 36018 ft 467 kts 284°
2026-04-22 00:33 3.39448 94.35798 36018 ft 467 kts 284°
2026-04-22 00:34 3.41090 94.29523 36018 ft 467 kts 284°
2026-04-22 00:34 3.42734 94.23235 36018 ft 467 kts 284°
2026-04-22 00:35 3.44373 94.16964 36018 ft 467 kts 284°
2026-04-22 00:35 3.46004 94.10725 36018 ft 467 kts 284°
2026-04-22 00:36 3.47654 94.04411 36018 ft 467 kts 284°
2026-04-22 00:36 3.49287 93.98160 36018 ft 467 kts 284°
2026-04-22 00:37 3.50927 93.91877 36018 ft 467 kts 284°
2026-04-22 00:37 3.52572 93.85578 36018 ft 467 kts 284°
2026-04-22 00:38 3.54208 93.79308 36018 ft 467 kts 284°
2026-04-22 00:38 3.55845 93.73035 36018 ft 467 kts 284°
2026-04-22 00:39 3.57480 93.66765 36018 ft 467 kts 284°
2026-04-22 00:39 3.59112 93.60509 36018 ft 467 kts 284°
2026-04-22 00:40 3.60757 93.54198 36018 ft 467 kts 284°
2026-04-22 00:40 3.62397 93.47904 36018 ft 467 kts 284°
2026-04-22 00:41 3.64033 93.41623 36018 ft 467 kts 284°
2026-04-22 00:41 3.65668 93.35348 36018 ft 467 kts 284°
2026-04-22 00:42 3.67302 93.29070 36018 ft 467 kts 284°
2026-04-22 00:42 3.68934 93.22800 36018 ft 467 kts 284°
2026-04-22 00:43 3.70569 93.16520 36018 ft 467 kts 284°
2026-04-22 00:43 3.72206 93.10226 36018 ft 467 kts 284°
2026-04-22 00:44 3.73840 93.03944 36018 ft 467 kts 284°
2026-04-22 00:44 3.75477 92.97645 36018 ft 467 kts 284°
2026-04-22 00:45 3.77107 92.91375 36018 ft 467 kts 284°
2026-04-22 00:45 3.78738 92.85098 36018 ft 467 kts 284°
2026-04-22 00:46 3.80369 92.78816 36018 ft 467 kts 284°
2026-04-22 00:46 3.82000 92.72537 36018 ft 467 kts 284°
2026-04-22 00:47 3.83631 92.66251 36018 ft 467 kts 284°
2026-04-22 00:47 3.85259 92.59978 36018 ft 467 kts 284°
2026-04-22 00:48 3.86888 92.53696 36018 ft 467 kts 284°
2026-04-22 00:48 3.88516 92.47418 36018 ft 467 kts 284°
2026-04-22 00:49 3.90149 92.41120 36018 ft 467 kts 284°
2026-04-22 00:49 3.91773 92.34853 36018 ft 467 kts 284°
2026-04-22 00:50 3.93403 92.28562 36018 ft 467 kts 284°
2026-04-22 00:50 3.95031 92.22280 36018 ft 467 kts 284°
2026-04-22 00:51 3.96659 92.15993 36018 ft 467 kts 284°
2026-04-22 00:51 3.98280 92.09732 36018 ft 467 kts 284°
2026-04-22 00:52 3.99909 92.03437 36018 ft 467 kts 284°
2026-04-22 00:52 4.01518 91.97174 36018 ft 467 kts 284°
2026-04-22 00:53 4.03109 91.90843 36018 ft 467 kts 284°
2026-04-22 00:53 4.04686 91.84564 36018 ft 467 kts 284°
2026-04-22 00:54 4.06265 91.78288 36018 ft 467 kts 284°
2026-04-22 00:54 4.07850 91.71987 36018 ft 467 kts 284°
2026-04-22 00:55 4.09439 91.65674 36018 ft 467 kts 284°
2026-04-22 00:55 4.11816 91.56226 36018 ft 467 kts 284°
2026-04-22 00:56 4.13395 91.49947 36018 ft 467 kts 284°
2026-04-22 00:56 4.14974 91.43664 36018 ft 467 kts 284°
2026-04-22 00:57 4.16562 91.37347 36018 ft 467 kts 284°
2026-04-22 00:57 4.18145 91.31044 36018 ft 467 kts 284°
2026-04-22 00:58 4.19720 91.24770 36018 ft 467 kts 284°
2026-04-22 00:58 4.21301 91.18469 36018 ft 467 kts 284°
2026-04-22 00:59 4.22878 91.12183 36018 ft 467 kts 284°
2026-04-22 00:59 4.24459 91.05880 36018 ft 467 kts 284°
2026-04-22 01:00 4.26038 90.99580 36018 ft 467 kts 284°
2026-04-22 01:00 4.27613 90.93300 36018 ft 467 kts 284°
2026-04-22 01:01 4.29196 90.86979 36018 ft 467 kts 284°
2026-04-22 01:01 4.30776 90.80670 36018 ft 467 kts 284°
2026-04-22 01:02 4.32351 90.74382 36018 ft 467 kts 284°
2026-04-22 01:02 4.33927 90.68082 36018 ft 467 kts 284°
2026-04-22 01:03 4.35497 90.61808 36018 ft 467 kts 284°
2026-04-22 01:03 4.37079 90.55486 36018 ft 467 kts 284°
2026-04-22 01:04 4.38651 90.49200 36018 ft 467 kts 284°
2026-04-22 01:04 4.40225 90.42905 36018 ft 467 kts 284°
2026-04-22 01:05 4.41847 90.36634 36018 ft 467 kts 285°
2026-04-22 01:05 4.43616 90.30375 36018 ft 467 kts 286°
2026-04-22 01:06 4.45384 90.24126 36018 ft 467 kts 285°
2026-04-22 01:06 4.47145 90.17867 36018 ft 467 kts 285°
2026-04-22 01:07 4.48897 90.11623 36018 ft 467 kts 285°
2026-04-22 01:07 4.50645 90.05388 36018 ft 467 kts 285°
2026-04-22 01:08 4.52404 89.99105 36018 ft 467 kts 285°
2026-04-22 01:08 4.54155 89.92851 36018 ft 467 kts 285°
2026-04-22 01:09 4.55906 89.86593 36018 ft 467 kts 285°
2026-04-22 01:09 4.57652 89.80353 36018 ft 467 kts 285°
2026-04-22 01:10 4.59400 89.74101 36018 ft 467 kts 285°
2026-04-22 01:10 4.61145 89.67856 36018 ft 467 kts 285°
2026-04-22 01:11 4.62901 89.61571 36018 ft 467 kts 285°
2026-04-22 01:11 4.64650 89.55311 36018 ft 467 kts 285°
2026-04-22 01:12 4.66395 89.49062 36018 ft 467 kts 285°
2026-04-22 01:12 4.68140 89.42807 36018 ft 467 kts 285°
2026-04-22 01:13 4.69897 89.36511 36018 ft 467 kts 285°
2026-04-22 01:13 4.71638 89.30268 36018 ft 467 kts 285°
2026-04-22 01:14 4.73386 89.23999 36018 ft 467 kts 285°
2026-04-22 01:14 4.75137 89.17718 36018 ft 467 kts 285°
2026-04-22 01:15 4.76876 89.11478 36018 ft 467 kts 285°
2026-04-22 01:15 4.78623 89.05204 36018 ft 467 kts 285°
2026-04-22 01:16 4.80357 88.98973 36018 ft 467 kts 285°
2026-04-22 01:16 4.82109 88.92679 36018 ft 467 kts 285°
2026-04-22 01:17 4.83842 88.86450 36018 ft 467 kts 285°
2026-04-22 01:17 4.85585 88.80182 36018 ft 467 kts 285°
2026-04-22 01:18 4.87332 88.73898 36018 ft 467 kts 285°
2026-04-22 01:18 4.89066 88.67657 36018 ft 467 kts 285°
2026-04-22 01:19 4.90804 88.61398 36018 ft 467 kts 285°
2026-04-22 01:19 4.92549 88.55111 36018 ft 467 kts 285°
2026-04-22 01:20 4.94288 88.48848 36018 ft 467 kts 285°
2026-04-22 01:20 4.96019 88.42608 36018 ft 467 kts 285°
2026-04-22 01:21 4.97758 88.36339 36018 ft 467 kts 285°
2026-04-22 01:21 4.99490 88.30090 36018 ft 467 kts 285°
2026-04-22 01:22 5.01227 88.23827 36018 ft 467 kts 285°
2026-04-22 01:22 5.02966 88.17548 36018 ft 467 kts 285°
2026-04-22 01:23 5.04698 88.11297 36018 ft 467 kts 285°
2026-04-22 01:23 5.06434 88.05027 36018 ft 467 kts 285°
2026-04-22 01:24 5.08167 87.98742 36018 ft 467 kts 285°
2026-04-22 01:24 5.09821 87.92484 36018 ft 467 kts 285°
2026-04-22 01:25 5.11475 87.86185 36018 ft 467 kts 285°
2026-04-22 01:25 5.13131 87.79892 36018 ft 467 kts 285°
2026-04-22 01:26 5.14790 87.73598 36018 ft 467 kts 285°
2026-04-22 01:26 5.16438 87.67345 36018 ft 467 kts 285°
2026-04-22 01:27 5.18099 87.61041 36018 ft 467 kts 285°
2026-04-22 01:27 5.19752 87.54763 36018 ft 467 kts 285°
2026-04-22 01:28 5.21408 87.48476 36018 ft 467 kts 285°
2026-04-22 01:28 5.23066 87.42175 36018 ft 467 kts 285°
2026-04-22 01:29 5.24721 87.35884 36018 ft 467 kts 285°
2026-04-22 01:29 5.26370 87.29614 36018 ft 467 kts 284°
2026-04-22 01:30 5.28020 87.23335 36018 ft 467 kts 284°
2026-04-22 01:30 5.29681 87.17014 36018 ft 467 kts 284°
2026-04-22 01:31 5.31323 87.10758 36018 ft 467 kts 284°
2026-04-22 01:31 5.32979 87.04451 36018 ft 467 kts 284°
2026-04-22 01:32 5.34631 86.98157 36018 ft 467 kts 284°
2026-04-22 01:32 5.36283 86.91857 36018 ft 467 kts 284°
2026-04-22 01:33 5.37925 86.85592 36018 ft 467 kts 284°
2026-04-22 01:33 5.39569 86.79321 36018 ft 467 kts 284°
2026-04-22 01:34 5.41219 86.73020 36018 ft 467 kts 284°
2026-04-22 01:34 5.42866 86.66728 36018 ft 467 kts 284°
2026-04-22 01:35 5.44512 86.60436 36018 ft 467 kts 284°
2026-04-22 01:35 5.46155 86.54158 36018 ft 467 kts 284°
2026-04-22 01:36 5.47805 86.47845 36018 ft 467 kts 284°
2026-04-22 01:36 5.49449 86.41553 36018 ft 467 kts 284°
2026-04-22 01:37 5.51086 86.35287 36018 ft 467 kts 284°
2026-04-22 01:37 5.52737 86.28964 36018 ft 467 kts 284°
2026-04-22 01:38 5.54384 86.22656 36018 ft 467 kts 284°
2026-04-22 01:38 5.56015 86.16402 36018 ft 467 kts 284°
2026-04-22 01:39 5.57659 86.10094 36018 ft 467 kts 284°
2026-04-22 01:39 5.59300 86.03796 36018 ft 467 kts 284°
2026-04-22 01:40 5.60946 85.97479 36018 ft 467 kts 284°
2026-04-22 01:40 5.62584 85.91188 36018 ft 467 kts 284°
2026-04-22 01:41 5.64214 85.84924 36018 ft 467 kts 284°
2026-04-22 01:41 5.65852 85.78625 36018 ft 467 kts 284°
2026-04-22 01:42 5.67490 85.72325 36018 ft 467 kts 284°
2026-04-22 01:42 5.69127 85.66027 36018 ft 467 kts 284°
2026-04-22 01:43 5.70765 85.59721 36018 ft 467 kts 284°
2026-04-22 01:43 5.72403 85.53411 36018 ft 467 kts 284°
2026-04-22 01:44 5.74034 85.47124 36018 ft 467 kts 284°
2026-04-22 01:44 5.75667 85.40829 36018 ft 467 kts 284°
2026-04-22 01:45 5.77307 85.34506 36018 ft 467 kts 284°
2026-04-22 01:45 5.78940 85.28204 36018 ft 467 kts 284°
2026-04-22 01:46 5.80566 85.21926 36018 ft 467 kts 284°
2026-04-22 01:46 5.82202 85.15609 36018 ft 467 kts 284°
2026-04-22 01:47 5.83828 85.09324 36018 ft 467 kts 284°
2026-04-22 01:47 5.85455 85.03031 36018 ft 467 kts 284°
2026-04-22 01:48 5.87092 84.96697 36018 ft 467 kts 284°
2026-04-22 01:48 5.88720 84.90400 36018 ft 467 kts 284°
2026-04-22 01:49 5.90341 84.84122 36018 ft 467 kts 284°
2026-04-22 01:49 5.91976 84.77786 36018 ft 467 kts 284°
2026-04-22 01:50 5.93601 84.71490 36018 ft 467 kts 284°
2026-04-22 01:50 5.95222 84.65200 36018 ft 467 kts 284°
2026-04-22 01:51 5.96851 84.58883 36018 ft 467 kts 284°
2026-04-22 01:51 5.98473 84.52586 36018 ft 467 kts 284°
2026-04-22 01:52 6.00100 84.46265 36018 ft 467 kts 284°
2026-04-22 01:52 6.01712 84.40002 36018 ft 467 kts 284°
2026-04-22 01:53 6.03344 84.33658 36018 ft 467 kts 284°
2026-04-22 01:53 6.04964 84.27360 36018 ft 467 kts 284°
2026-04-22 01:54 6.06585 84.21053 36018 ft 467 kts 284°
2026-04-22 01:54 6.08204 84.14751 36018 ft 467 kts 284°
2026-04-22 01:55 6.09826 84.08433 36018 ft 467 kts 284°
2026-04-22 01:55 6.11436 84.02162 36018 ft 467 kts 284°
2026-04-22 01:56 6.13058 83.95832 36018 ft 467 kts 284°
2026-04-22 01:56 6.14671 83.89528 36018 ft 467 kts 284°
2026-04-22 01:57 6.16290 83.83199 36018 ft 467 kts 284°
2026-04-22 01:57 6.17903 83.76897 36018 ft 467 kts 284°
2026-04-22 01:58 6.19516 83.70590 36018 ft 467 kts 284°
2026-04-22 01:58 6.21124 83.64300 36018 ft 467 kts 284°
2026-04-22 01:59 6.22739 83.57979 36018 ft 467 kts 284°
2026-04-22 01:59 6.24358 83.51637 36018 ft 467 kts 284°
2026-04-22 02:00 6.25957 83.45373 36018 ft 467 kts 284°
2026-04-22 02:00 6.27572 83.39043 36018 ft 467 kts 284°
2026-04-22 02:01 6.29180 83.32736 36018 ft 467 kts 284°
2026-04-22 02:01 6.30792 83.26411 36018 ft 467 kts 284°
2026-04-22 02:02 6.32391 83.20132 36018 ft 467 kts 284°
2026-04-22 02:02 6.33999 83.13812 36018 ft 467 kts 284°
2026-04-22 02:03 6.35608 83.07489 36018 ft 467 kts 284°
2026-04-22 02:03 6.37209 83.01190 36018 ft 467 kts 284°
2026-04-22 02:04 6.39622 82.91696 36018 ft 467 kts 284°
2026-04-22 02:05 6.41230 82.85363 36018 ft 467 kts 284°
2026-04-22 02:05 6.42827 82.79072 36018 ft 467 kts 284°
2026-04-22 02:06 6.44432 82.72743 36018 ft 467 kts 284°
2026-04-22 02:06 6.46033 82.66427 36018 ft 467 kts 284°
2026-04-22 02:07 6.47630 82.60128 36018 ft 467 kts 284°
2026-04-22 02:07 6.49230 82.53809 36018 ft 467 kts 284°
2026-04-22 02:08 6.50824 82.47510 36018 ft 467 kts 284°
2026-04-22 02:08 6.52424 82.41186 36018 ft 467 kts 284°
2026-04-22 02:09 6.54017 82.34884 36018 ft 467 kts 284°
2026-04-22 02:09 6.55620 82.28541 36018 ft 467 kts 284°
2026-04-22 02:10 6.57216 82.22222 36018 ft 467 kts 284°
2026-04-22 02:10 6.58808 82.15919 36018 ft 467 kts 284°
2026-04-22 02:11 6.60409 82.09573 36018 ft 467 kts 284°
2026-04-22 02:11 6.62000 82.03266 36018 ft 467 kts 284°
2026-04-22 02:12 6.63594 81.96942 36018 ft 467 kts 284°
2026-04-22 02:12 6.65188 81.90629 36018 ft 467 kts 284°
2026-04-22 02:13 6.66786 81.84301 36018 ft 467 kts 284°
2026-04-22 02:13 6.68381 81.77979 36018 ft 467 kts 284°
2026-04-22 02:14 6.69970 81.71680 36018 ft 467 kts 284°
2026-04-22 02:14 6.71570 81.65333 36018 ft 467 kts 284°
2026-04-22 02:15 6.73164 81.59010 36018 ft 467 kts 284°
2026-04-22 02:15 6.74757 81.52683 36018 ft 467 kts 284°
2026-04-22 02:16 6.76338 81.46398 36018 ft 467 kts 284°
2026-04-22 02:16 6.77933 81.40059 36018 ft 467 kts 284°
2026-04-22 02:17 6.79523 81.33732 36018 ft 467 kts 284°
2026-04-22 02:17 6.81112 81.27409 36018 ft 467 kts 284°
2026-04-22 02:18 6.82693 81.21116 36018 ft 467 kts 284°
2026-04-22 02:18 6.84280 81.14793 36018 ft 467 kts 284°
2026-04-22 02:19 6.85866 81.08472 36018 ft 467 kts 284°
2026-04-22 02:19 6.87457 81.02123 36018 ft 467 kts 284°
2026-04-22 02:20 6.89034 80.95819 36018 ft 467 kts 284°
2026-04-22 02:20 6.90618 80.89467 36018 ft 467 kts 284°
2026-04-22 02:21 6.92198 80.83134 36018 ft 467 kts 284°
2026-04-22 02:21 6.93778 80.76798 36018 ft 467 kts 284°
2026-04-22 02:22 6.95352 80.70483 36018 ft 467 kts 284°
2026-04-22 02:22 6.96930 80.64151 36018 ft 467 kts 284°
2026-04-22 02:23 6.98499 80.57848 36018 ft 467 kts 284°
2026-04-22 02:23 7.00082 80.51487 36018 ft 467 kts 284°
2026-04-22 02:24 7.01657 80.45154 36018 ft 467 kts 284°
2026-04-22 02:24 7.03227 80.38836 36018 ft 467 kts 284°
2026-04-22 02:25 7.04801 80.32501 36018 ft 467 kts 284°
2026-04-22 02:25 7.06369 80.26188 36018 ft 467 kts 284°
2026-04-22 02:26 7.07941 80.19851 36018 ft 467 kts 284°
2026-04-22 02:26 7.09507 80.13537 36018 ft 467 kts 284°
2026-04-22 02:27 7.11085 80.07169 36018 ft 467 kts 284°
2026-04-22 02:27 7.12646 80.00870 36018 ft 467 kts 284°
2026-04-22 02:28 7.14221 79.94507 36018 ft 467 kts 284°
2026-04-22 02:28 7.15970 79.88221 36018 ft 467 kts 288°
2026-04-22 02:29 7.18337 79.82149 36018 ft 467 kts 295°
2026-04-22 02:29 7.21117 79.76247 36018 ft 467 kts 296°
2026-04-22 02:30 7.23903 79.70399 36018 ft 467 kts 295°
2026-04-22 02:30 7.26719 79.64468 36018 ft 467 kts 295°
2026-04-22 02:31 7.29507 79.58585 36018 ft 467 kts 295°
2026-04-22 02:31 7.32302 79.52683 36018 ft 467 kts 295°
2026-04-22 02:32 7.35078 79.46819 36018 ft 467 kts 295°
2026-04-22 02:32 7.37864 79.40929 36018 ft 467 kts 295°
2026-04-22 02:33 7.40653 79.35030 36018 ft 467 kts 295°
2026-04-22 02:33 7.43445 79.29125 36018 ft 467 kts 295°
2026-04-22 02:34 7.46233 79.23224 36018 ft 467 kts 295°
2026-04-22 02:34 7.49012 79.17342 36018 ft 467 kts 295°
2026-04-22 02:35 7.51793 79.11427 36018 ft 467 kts 294°
2026-04-22 02:35 7.54392 79.05436 36018 ft 467 kts 293°
2026-04-22 02:36 7.56949 78.99441 36018 ft 467 kts 293°
2026-04-22 02:36 7.59528 78.93427 36018 ft 467 kts 293°
2026-04-22 02:37 7.62104 78.87434 36018 ft 467 kts 293°
2026-04-22 02:37 7.64679 78.81448 36018 ft 467 kts 293°
2026-04-22 02:38 7.67248 78.75474 36018 ft 467 kts 293°
2026-04-22 02:38 7.69839 78.69448 36018 ft 467 kts 293°
2026-04-22 02:39 7.72419 78.63444 36018 ft 467 kts 293°
2026-04-22 02:39 7.74997 78.57444 36018 ft 467 kts 293°
2026-04-22 02:40 7.77558 78.51480 36018 ft 467 kts 293°
2026-04-22 02:40 7.80151 78.45438 36018 ft 467 kts 293°
2026-04-22 02:41 7.82725 78.39439 36018 ft 467 kts 293°
2026-04-22 02:41 7.85292 78.33452 36018 ft 467 kts 293°
2026-04-22 02:42 7.87870 78.27439 36018 ft 467 kts 293°
2026-04-22 02:42 7.90438 78.21446 36018 ft 467 kts 293°
2026-04-22 02:43 7.93020 78.15417 36018 ft 467 kts 294°
2026-04-22 02:43 7.95661 78.09433 36018 ft 467 kts 294°
2026-04-22 02:44 7.98325 78.03463 36018 ft 467 kts 294°
2026-04-22 02:44 8.00981 77.97498 36018 ft 467 kts 294°
2026-04-22 02:45 8.03629 77.91541 36018 ft 467 kts 294°
2026-04-22 02:45 8.06278 77.85574 36018 ft 467 kts 294°
2026-04-22 02:46 8.08941 77.79575 36018 ft 467 kts 294°
2026-04-22 02:46 8.11589 77.73604 36018 ft 467 kts 294°
2026-04-22 02:47 8.14227 77.67652 36018 ft 467 kts 294°
2026-04-22 02:47 8.16874 77.61679 36018 ft 467 kts 294°
2026-04-22 02:48 8.19515 77.55716 36018 ft 467 kts 294°
2026-04-22 02:48 8.22159 77.49742 36018 ft 467 kts 294°
2026-04-22 02:49 8.24796 77.43784 36018 ft 467 kts 294°
2026-04-22 02:49 8.27446 77.37792 36018 ft 467 kts 294°
2026-04-22 02:50 8.30083 77.31827 36018 ft 467 kts 294°
2026-04-22 02:50 8.32729 77.25838 36018 ft 467 kts 294°
2026-04-22 02:51 8.35363 77.19875 36018 ft 467 kts 294°
2026-04-22 02:51 8.38001 77.13899 36018 ft 467 kts 294°
2026-04-22 02:52 8.40643 77.07912 36018 ft 467 kts 294°
2026-04-22 02:52 8.43280 77.01932 36018 ft 467 kts 294°
2026-04-22 02:53 8.45917 76.95951 36018 ft 467 kts 294°
2026-04-22 02:53 8.48319 76.89890 36018 ft 467 kts 289°
2026-04-22 02:54 8.50405 76.83681 36018 ft 467 kts 288°
2026-04-22 02:54 8.52464 76.77493 36018 ft 467 kts 289°
2026-04-22 02:55 8.54535 76.71283 36018 ft 467 kts 289°
2026-04-22 02:55 8.56610 76.65067 36018 ft 467 kts 289°
2026-04-22 02:56 8.58674 76.58880 36018 ft 467 kts 289°
2026-04-22 02:56 8.60744 76.52675 36018 ft 467 kts 289°
2026-04-22 02:57 8.62820 76.46448 36018 ft 467 kts 289°
2026-04-22 02:57 8.64890 76.40234 36018 ft 467 kts 289°
2026-04-22 02:58 8.66964 76.34007 36018 ft 467 kts 288°
2026-04-22 02:58 8.69024 76.27818 36018 ft 467 kts 288°
2026-04-22 02:59 8.71090 76.21606 36018 ft 467 kts 288°
2026-04-22 02:59 8.73148 76.15416 36018 ft 467 kts 288°
2026-04-22 03:00 8.75221 76.09173 36018 ft 467 kts 288°
2026-04-22 03:00 8.77270 76.03003 36018 ft 467 kts 288°
2026-04-22 03:01 8.79334 75.96781 36018 ft 467 kts 288°
2026-04-22 03:01 8.81392 75.90575 36018 ft 467 kts 288°
2026-04-22 03:02 8.83461 75.84332 36018 ft 467 kts 288°
2026-04-22 03:02 8.85521 75.78110 36018 ft 467 kts 288°
2026-04-22 03:03 8.87567 75.71928 36018 ft 467 kts 288°
2026-04-22 03:03 8.89626 75.65705 36018 ft 467 kts 288°
2026-04-22 03:04 8.91680 75.59489 36018 ft 467 kts 288°
2026-04-22 03:04 8.93741 75.53252 36018 ft 467 kts 288°
2026-04-22 03:05 8.95786 75.47060 36018 ft 467 kts 288°
2026-04-22 03:05 8.97841 75.40832 36018 ft 467 kts 288°
2026-04-22 03:06 8.99887 75.34626 36018 ft 467 kts 288°
2026-04-22 03:06 9.01945 75.28382 36018 ft 467 kts 288°
2026-04-22 03:07 9.03996 75.22158 36018 ft 467 kts 288°
2026-04-22 03:07 9.06039 75.15954 36018 ft 467 kts 288°
2026-04-22 03:08 9.08093 75.09708 36018 ft 467 kts 288°
2026-04-22 03:08 9.10139 75.03485 36018 ft 467 kts 288°
2026-04-22 03:09 9.12183 74.97263 36018 ft 467 kts 288°
2026-04-22 03:09 9.14224 74.91045 36018 ft 467 kts 288°
2026-04-22 03:10 9.16261 74.84837 36018 ft 467 kts 288°
2026-04-22 03:10 9.18310 74.78588 36018 ft 467 kts 288°
2026-04-22 03:11 9.20342 74.72388 36018 ft 467 kts 288°
2026-04-22 03:11 9.22382 74.66157 36018 ft 467 kts 288°
2026-04-22 03:12 9.24413 74.59952 36018 ft 467 kts 288°
2026-04-22 03:12 9.27478 74.50581 36018 ft 467 kts 288°
2026-04-22 03:13 9.29504 74.44381 36018 ft 467 kts 288°
2026-04-22 03:13 9.31548 74.38124 36018 ft 467 kts 288°
2026-04-22 03:14 9.33580 74.31897 36018 ft 467 kts 288°
2026-04-22 03:14 9.35609 74.25674 36018 ft 467 kts 288°
2026-04-22 03:15 9.37652 74.19408 36018 ft 467 kts 288°
2026-04-22 03:15 9.39675 74.13199 36018 ft 467 kts 288°
2026-04-22 03:16 9.41710 74.06973 36018 ft 467 kts 288°
2026-04-22 03:16 9.43782 74.00747 36018 ft 467 kts 289°
2026-04-22 03:17 9.45850 73.94537 36018 ft 467 kts 289°
2026-04-22 03:17 9.47930 73.88284 36018 ft 467 kts 289°
2026-04-22 03:18 9.49988 73.82087 36018 ft 467 kts 289°
2026-04-22 03:18 9.52053 73.75866 36018 ft 467 kts 289°
2026-04-22 03:19 9.54114 73.69652 36018 ft 467 kts 288°
2026-04-22 03:19 9.56177 73.63427 36018 ft 467 kts 288°
2026-04-22 03:20 9.58247 73.57178 36018 ft 467 kts 288°
2026-04-22 03:20 9.60303 73.50964 36018 ft 467 kts 289°
2026-04-22 03:21 9.62362 73.44742 36018 ft 467 kts 289°
2026-04-22 03:21 9.64421 73.38511 36018 ft 467 kts 289°
2026-04-22 03:22 9.66473 73.32300 36018 ft 467 kts 288°
2026-04-22 03:22 9.68528 73.26074 36018 ft 467 kts 288°
2026-04-22 03:23 9.70592 73.19820 36018 ft 467 kts 288°
2026-04-22 03:23 9.72645 73.13593 36018 ft 467 kts 288°
2026-04-22 03:24 9.74700 73.07355 36018 ft 467 kts 288°
2026-04-22 03:24 9.76744 73.01148 36018 ft 467 kts 288°
2026-04-22 03:25 9.78810 72.94868 36018 ft 467 kts 288°
2026-04-22 03:25 9.80845 72.88680 36018 ft 467 kts 288°
2026-04-22 03:26 9.82905 72.82410 36018 ft 467 kts 288°
2026-04-22 03:26 9.84950 72.76179 36018 ft 467 kts 288°
2026-04-22 03:27 9.87000 72.69933 36018 ft 467 kts 288°
2026-04-22 03:27 9.89054 72.63671 36018 ft 467 kts 288°
2026-04-22 03:28 9.91091 72.57455 36018 ft 467 kts 288°
2026-04-22 03:28 9.93134 72.51216 36018 ft 467 kts 288°
2026-04-22 03:29 9.95262 72.44981 36017 ft 467 kts 291°
2026-04-22 03:29 9.97913 72.39005 36017 ft 467 kts 297°
2026-04-22 03:30 10.01192 72.33312 36018 ft 467 kts 303°
2026-04-22 03:30 10.04805 72.27848 36018 ft 467 kts 304°
2026-04-22 03:31 10.08411 72.22427 36018 ft 467 kts 304°
2026-04-22 03:31 10.12042 72.16952 36018 ft 467 kts 304°
2026-04-22 03:32 10.15649 72.11504 36018 ft 467 kts 304°
2026-04-22 03:32 10.19261 72.06043 36018 ft 467 kts 304°
2026-04-22 03:33 10.22866 72.00589 36018 ft 467 kts 304°
2026-04-22 03:33 10.26473 71.95129 36018 ft 467 kts 304°
2026-04-22 03:34 10.30087 71.89657 36018 ft 467 kts 304°
2026-04-22 03:34 10.33710 71.84167 36018 ft 467 kts 304°
2026-04-22 03:35 10.37292 71.78738 36018 ft 467 kts 304°
2026-04-22 03:35 10.40919 71.73237 36018 ft 467 kts 304°
2026-04-22 03:36 10.44538 71.67745 36068 ft 469 kts 304°
2026-04-22 03:36 10.46330 71.65027 36271 ft 468 kts 304°
2026-04-22 03:36 10.48138 71.62281 36507 ft 467 kts 304°
2026-04-22 03:37 10.49944 71.59539 36710 ft 466 kts 304°
2026-04-22 03:37 10.51741 71.56809 36881 ft 466 kts 304°
2026-04-22 03:37 10.53536 71.54082 37040 ft 466 kts 304°
2026-04-22 03:37 10.55338 71.51344 37197 ft 467 kts 304°
2026-04-22 03:38 10.57122 71.48631 37348 ft 467 kts 304°
2026-04-22 03:38 10.58917 71.45901 37497 ft 467 kts 304°
2026-04-22 03:38 10.60731 71.43143 37644 ft 467 kts 304°
2026-04-22 03:38 10.62520 71.40422 37785 ft 467 kts 304°
2026-04-22 03:39 10.64305 71.37706 37922 ft 467 kts 304°
2026-04-22 03:39 10.66110 71.34959 38011 ft 467 kts 303°
2026-04-22 03:39 10.69705 71.29485 38019 ft 467 kts 303°
2026-04-22 03:40 10.73306 71.24000 38020 ft 467 kts 303°
2026-04-22 03:40 10.76904 71.18516 38020 ft 467 kts 303°
2026-04-22 03:41 10.80511 71.13016 38020 ft 467 kts 303°
2026-04-22 03:41 10.84101 71.07539 38020 ft 467 kts 303°
2026-04-22 03:42 10.87702 71.02043 38020 ft 467 kts 303°
2026-04-22 03:42 10.91282 70.96574 38020 ft 467 kts 303°
2026-04-22 03:43 10.94872 70.91090 38020 ft 467 kts 303°
2026-04-22 03:43 10.98473 70.85583 38020 ft 467 kts 303°
2026-04-22 03:44 11.02066 70.80088 38020 ft 467 kts 303°
2026-04-22 03:44 11.05647 70.74607 38020 ft 467 kts 303°
2026-04-22 03:45 11.09248 70.69095 38020 ft 467 kts 303°
2026-04-22 03:45 11.12819 70.63624 38020 ft 467 kts 303°
2026-04-22 03:46 11.16406 70.58125 38021 ft 467 kts 303°
2026-04-22 03:46 11.19991 70.52628 38021 ft 467 kts 303°
2026-04-22 03:47 11.23576 70.47128 38021 ft 467 kts 303°
2026-04-22 03:47 11.27159 70.41628 38021 ft 467 kts 303°
2026-04-22 03:48 11.30743 70.36123 38021 ft 467 kts 303°
2026-04-22 03:48 11.34319 70.30627 38020 ft 467 kts 303°
2026-04-22 03:49 11.37908 70.25108 38020 ft 467 kts 303°
2026-04-22 03:49 11.41499 70.19584 38020 ft 467 kts 303°
2026-04-22 03:50 11.45059 70.14103 38020 ft 467 kts 303°
2026-04-22 03:50 11.48642 70.08586 38020 ft 467 kts 303°
2026-04-22 03:51 11.52215 70.03080 38020 ft 467 kts 303°
2026-04-22 03:51 11.55791 69.97568 38020 ft 467 kts 303°
2026-04-22 03:52 11.59355 69.92072 38020 ft 467 kts 303°
2026-04-22 03:52 11.62938 69.86535 38020 ft 467 kts 303°
2026-04-22 03:53 11.66476 69.81027 38020 ft 467 kts 303°
2026-04-22 03:53 11.70048 69.75461 38020 ft 467 kts 303°
2026-04-22 03:54 11.73585 69.69949 38020 ft 467 kts 303°
2026-04-22 03:54 11.77131 69.64421 38020 ft 467 kts 303°
2026-04-22 03:55 11.80688 69.58875 38020 ft 467 kts 303°
2026-04-22 03:55 11.84239 69.53336 38020 ft 467 kts 303°
2026-04-22 03:56 11.87766 69.47829 38020 ft 467 kts 303°
2026-04-22 03:56 11.91320 69.42278 38020 ft 467 kts 303°
2026-04-22 03:57 11.94856 69.36751 38020 ft 467 kts 303°
2026-04-22 03:57 11.98344 69.31298 38020 ft 467 kts 303°
2026-04-22 03:58 12.01891 69.25749 38021 ft 467 kts 303°
2026-04-22 03:58 12.05423 69.20222 38021 ft 467 kts 303°
2026-04-22 03:59 12.08959 69.14682 38021 ft 467 kts 303°
2026-04-22 03:59 12.12512 69.09114 38020 ft 467 kts 303°
2026-04-22 04:00 12.16050 69.03567 38020 ft 467 kts 303°
2026-04-22 04:00 12.19587 68.98019 38020 ft 467 kts 303°
2026-04-22 04:01 12.23126 68.92490 38020 ft 467 kts 303°
2026-04-22 04:01 12.26682 68.86932 38020 ft 467 kts 303°
2026-04-22 04:02 12.30220 68.81399 38020 ft 467 kts 303°
2026-04-22 04:02 12.33768 68.75847 38021 ft 467 kts 303°
2026-04-22 04:03 12.37316 68.70290 38021 ft 467 kts 303°
2026-04-22 04:03 12.40865 68.64728 38020 ft 467 kts 303°
2026-04-22 04:04 12.44396 68.59191 38020 ft 467 kts 303°
2026-04-22 04:04 12.47932 68.53643 38020 ft 467 kts 303°
2026-04-22 04:05 12.51463 68.48102 38020 ft 467 kts 303°
2026-04-22 04:05 12.55010 68.42531 38020 ft 467 kts 303°
2026-04-22 04:06 12.58550 68.36967 38020 ft 467 kts 303°
2026-04-22 04:06 12.62096 68.31391 38020 ft 467 kts 303°
2026-04-22 04:07 12.65626 68.25835 38020 ft 467 kts 303°
2026-04-22 04:07 12.69155 68.20279 38020 ft 467 kts 303°
2026-04-22 04:08 12.72673 68.14738 38020 ft 467 kts 303°
2026-04-22 04:08 12.76207 68.09168 38020 ft 467 kts 303°
2026-04-22 04:09 12.79737 68.03599 38020 ft 467 kts 303°
2026-04-22 04:09 12.83266 67.98055 38020 ft 467 kts 303°
2026-04-22 04:10 12.85766 67.94149 38020 ft 467 kts 303°
2026-04-22 04:10 12.87610 67.91269 38018 ft 467 kts 304°
2026-04-22 04:11 12.91186 67.85654 37983 ft 475 kts 305°
2026-04-22 04:11 12.94825 67.79971 37956 ft 483 kts 304°
2026-04-22 04:12 12.98507 67.74210 37943 ft 490 kts 305°
2026-04-22 04:12 13.02235 67.68362 37937 ft 488 kts 305°
2026-04-22 04:13 13.05912 67.62595 37934 ft 484 kts 305°
2026-04-22 04:13 13.09591 67.56824 37933 ft 479 kts 305°
2026-04-22 04:14 13.13215 67.51138 37933 ft 476 kts 305°
2026-04-22 04:14 13.16809 67.45492 37933 ft 475 kts 305°
2026-04-22 04:15 13.20406 67.39837 37932 ft 475 kts 305°
2026-04-22 04:15 13.24009 67.34169 37932 ft 475 kts 305°
2026-04-22 04:16 13.29412 67.25661 37932 ft 475 kts 305°
2026-04-22 04:17 13.33003 67.20003 37932 ft 475 kts 305°
2026-04-22 04:17 13.36593 67.14339 37931 ft 476 kts 305°
2026-04-22 04:18 13.40217 67.08621 37931 ft 479 kts 305°
2026-04-22 04:18 13.43864 67.02863 37931 ft 483 kts 305°
2026-04-22 04:19 13.47524 66.97084 37931 ft 487 kts 305°
2026-04-22 04:19 13.51206 66.91264 37932 ft 489 kts 305°
2026-04-22 04:20 13.54913 66.85399 37932 ft 489 kts 305°
2026-04-22 04:20 13.58612 66.79544 37932 ft 489 kts 305°
2026-04-22 04:21 13.62289 66.73717 37932 ft 489 kts 305°
2026-04-22 04:21 13.65997 66.67840 37932 ft 490 kts 305°
2026-04-22 04:22 13.69697 66.61970 37932 ft 490 kts 305°
2026-04-22 04:22 13.73372 66.56137 37932 ft 490 kts 305°
2026-04-22 04:23 13.77083 66.50241 37932 ft 490 kts 305°
2026-04-22 04:23 13.79522 66.46365 37932 ft 490 kts 305°